Volver al catálogo

STARLINK-33694

ActivoComunicacionesVLEO
NORAD 63407·PAYLOAD·🇺🇸 United States

Lanzado Mar 31, 2025 desde Cape Canaveral Space Force Station

Loading…

Próximos Pases (próximas 24 horas)

TLE

ActualizadoSource: CelesTrak SupGP

Época: Sep 15, 2026, 02:25 UTC

1 63407C 25065J   26258.10118056  .00037498  00000+0  13582-2 0  2582
2 63407  43.0016 117.1813 0001422 275.7492 322.5670 15.27558099    10

Sigue STARLINK-33694 en tiempo real con AllMySat

Download on the App Store